Change the Weather History Date:

Wednesday, June 12, 2013

  Actual Average Record
Temperature  
Mean Temperature 68 °F 68 °F  
Max Temperature 76 °F 76 °F 88 °F (1988)
Min Temperature 59 °F 59 °F 50 °F (2004)
Degree Days  
Heating Degree Days 0 1  
Month to date heating degree days 6 27  
Since 1 June heating degree days 6 27  
Since 1 July heating degree days 5096 5417  
Cooling Degree Days 3 4  
Month to date cooling degree days 36 35  
Year to date cooling degree days 68 59  
Since 1 June cooling degree days 36 35  
Growing Degree Days 18 (Base 50)    
Moisture  
Dew Point 52 °F    
Average Humidity 62    
Maximum Humidity 80    
Minimum Humidity 43    
Precipitation  
Precipitation 0.00 in 0.16 in 3.45 in (1998)
Month to date precipitation 6.72 1.96  
Year to date precipitation 22.07 21.42  
Snow  
Snow 0.00 in 0.00 in - ()
Month to date snowfall 0.0 0.0  
Since 1 July snowfall 46.9 24.8  
Snow Depth 0.00 in    
Sea Level Pressure  
Sea Level Pressure 29.75 in    
Wind  
Wind Speed 13 mph (NW)    
Max Wind Speed 24 mph    
Max Gust Speed 35 mph    
Visibility 10 miles    
Events      
T = Trace of Precipitation, MM = Missing Value Source: NWS Daily Summary

Daily Weather History Graph

Daily Weather History Graph

Search for Another Location

Airport or City:

Trip Planner

Search our weather history database for the weather conditions in past years. The results will help you decide how hot, cold, wet, or windy it might be!

Date:

Astronomy

Jun. 12, 2013 Rise Set
Actual Time 5:20 AM EDT 8:24 PM EDT
Civil Twilight 4:47 AM EDT 8:57 PM EDT
Nautical Twilight 4:04 AM EDT 9:40 PM EDT
Astronomical Twilight 3:14 AM EDT 10:30 PM EDT
Moon 8:58 AM EDT (6/12) 10:57 PM EDT (6/12)
Length of Visible Light 16h 10m
Length of Day
15h 04m
Waxing Crescent, 14% of the Moon is Illuminated
Jun 12
Waxing Crescent
Jun 16
First Quarter
Jun 23
Full
Jun 30
Last Quarter
Jul 8
New

Hourly Weather History & Observations

Time (EDT) Temp. Dew Point Humidity Pressure Visibility Wind Dir Wind Speed Gust Speed Precip Events Conditions
12:56 AM 68.0 °F 54.0 °F 61% 29.68 in 10.0 mi WNW 10.4 mph 21.9 mph N/A   Clear
1:56 AM 68.0 °F 54.0 °F 61% 29.68 in 10.0 mi West 13.8 mph 23.0 mph N/A   Clear
2:56 AM 66.0 °F 55.0 °F 68% 29.67 in 10.0 mi West 11.5 mph - N/A   Clear
3:56 AM 66.9 °F 54.0 °F 63% 29.66 in 10.0 mi WNW 20.7 mph 27.6 mph N/A   Clear
4:56 AM 66.9 °F 53.1 °F 61% 29.68 in 10.0 mi WNW 19.6 mph 26.5 mph N/A   Clear
5:56 AM 66.0 °F 51.1 °F 59% 29.70 in 10.0 mi WNW 18.4 mph 28.8 mph N/A   Partly Cloudy
6:56 AM 66.0 °F 52.0 °F 60% 29.72 in 10.0 mi WNW 16.1 mph 24.2 mph N/A   Scattered Clouds
7:56 AM 66.9 °F 51.1 °F 57% 29.73 in 10.0 mi WNW 16.1 mph 27.6 mph N/A   Scattered Clouds
8:56 AM 68.0 °F 51.1 °F 55% 29.74 in 10.0 mi NW 18.4 mph 24.2 mph N/A   Scattered Clouds
9:56 AM 70.0 °F 51.1 °F 51% 29.74 in 10.0 mi WNW 16.1 mph 25.3 mph N/A   Scattered Clouds
10:56 AM 72.0 °F 51.1 °F 48% 29.75 in 10.0 mi NNW 17.3 mph 24.2 mph N/A   Scattered Clouds
11:56 AM 73.0 °F 51.1 °F 46% 29.75 in 10.0 mi NW 20.7 mph 28.8 mph N/A   Scattered Clouds
12:56 PM 73.0 °F 51.1 °F 46% 29.76 in 10.0 mi NW 21.9 mph 34.5 mph N/A   Scattered Clouds
1:56 PM 73.9 °F 50.0 °F 43% 29.77 in 10.0 mi WNW 19.6 mph 27.6 mph N/A   Scattered Clouds
2:56 PM 75.0 °F 51.1 °F 43% 29.77 in 10.0 mi NW 18.4 mph 28.8 mph N/A   Mostly Cloudy
3:56 PM 73.0 °F 51.1 °F 46% 29.76 in 10.0 mi NNW 19.6 mph 24.2 mph N/A   Scattered Clouds
4:56 PM 75.0 °F 51.1 °F 43% 29.77 in 10.0 mi NW 18.4 mph 23.0 mph N/A   Scattered Clouds
5:56 PM 75.0 °F 51.1 °F 43% 29.78 in 10.0 mi NNW 13.8 mph - N/A   Scattered Clouds
6:56 PM 73.0 °F 51.1 °F 46% 29.80 in 10.0 mi NNW 10.4 mph - N/A   Scattered Clouds
7:56 PM 71.1 °F 51.1 °F 49% 29.82 in 10.0 mi NW 6.9 mph - N/A   Partly Cloudy
8:56 PM 66.9 °F 52.0 °F 59% 29.83 in 10.0 mi NW 3.5 mph - N/A   Partly Cloudy
9:56 PM 64.0 °F 53.1 °F 67% 29.84 in 10.0 mi Calm Calm - N/A   Partly Cloudy
10:56 PM 62.1 °F 53.1 °F 72% 29.83 in 10.0 mi Calm Calm - N/A   Partly Cloudy
11:56 PM 59.0 °F 53.1 °F 81% 29.82 in 10.0 mi Calm Calm - N/A   Partly Cloudy